Location: Gorze? G�rny
(49.8500°N, 19.5000°E)
Time: 04:54:31
(UTC+00:00)

Gbstr 26 Del rocket - Pass Details

Date: 13 May 2021
Orbit: 493 x 1263 km, 51.8° (Epoch: 20 June)

Event Time Altitude Azimuth Distance (km) Brightness Sun altitude
Rises 20:14:39 0° 286° (WNW) 4,170 8.1 -14.5°
Reaches altitude 10° 20:17:37 10° 286° (WNW) 3,148 7.4 -14.8°
Maximum altitude 20:25:23 90° 288° (WNW) 1,086 4.2 -15.5°
Enters shadow 20:31:01 15° 109° (ESE) 2,357 5.6 -16.0°
